User: anonymous   Login
Location: *
(48.8489°N, 2.3218°E)
Time: 15:54:47
(UTC+00:00)
Language:

DMSP B5D2-2 - Orbit

View from above orbital plane
View from above orbital plane
View from above satellite
View from above satellite

Ground track
Ground track

The orbit data is extracted from the following two-line orbital elements,

1 14506U 83113A   19294.14282581  .00000011  00000-0  21071-4 0  9995
2 14506  98.3610 152.0253 0010577 207.2981 312.7278 14.28061561868660
Epoch (UTC): 21 October 2019 03:25:40
Eccentricity: 0.0010577
inclination: 98.3610°
perigee height: 790 km
apogee height: 806 km
right ascension of ascending node: 152.0253°
argument of perigee: 207.2981°
revolutions per day: 14.28061561
mean anomaly at epoch: 312.7278°
orbit number at epoch: 86866

The dashed part of the orbit path shows where the satellite is in the earth's shadow,  

DLR